Wind_Speed
35 34 32 31 30 27 25 23 22 19 19 20 19 18 18 17 17 16 15 13 13 14 15 15 14 12 10 3 4 5 4 7 8 6 5 5 4 2 2 3 6 3 3 10 15 22 20
36 35 36 35 34 32 31 27 26 23 21 22 22 19 19 18 17 18 14 15 14 13 14 15 13 12 8 3 5 4 4 4 4 4 3 2 2 3 2 1 0 3 6 13 7 15 11
43 41 39 39 39 37 34 32 30 26 25 24 23 20 20 19 18 18 17 14 15 14 14 14 11 9 8 5 4 5 6 4 1 4 4 2 2 2 3 3 5 5 4 5 8 16 6
47 50 48 44 41 41 40 37 33 30 27 23 21 24 21 21 19 19 17 15 15 15 14 13 11 9 4 3 3 2 1 1 3 2 2 2 0 3 4 6 7 5 5 6 7 12 8
45 45 49 53 45 46 44 43 39 33 31 29 24 25 24 21 20 18 18 15 15 16 15 12 10 4 3 5 4 1 1 4 3 4 3 4 5 5 6 3 5 7 4 5 6 14 7
45 47 42 54 51 51 49 50 43 38 32 30 27 27 25 22 20 20 15 13 15 17 12 10 10 6 3 3 4 4 3 3 4 6 4 5 5 4 5 5 1 5 5 5 8 5 5
40 42 46 43 57 53 51 47 49 45 39 34 31 29 26 22 21 19 14 13 11 6 10 7 3 3 3 4 4 5 2 3 5 7 3 6 6 4 4 3 3 4 4 11 10 9 7
42 42 41 45 43 63 56 48 51 52 45 38 35 31 27 25 23 20 22 11 12 5 5 11 14 9 8 4 4 7 1 3 4 4 3 5 4 1 4 2 5 6 8 9 11 1 12
48 48 46 41 46 49 64 61 59 56 54 45 41 34 30 28 20 22 22 14 11 8 3 6 13 10 7 12 6 9 5 5 4 3 2 5 5 3 2 5 4 4 5 5 12 21 10
44 47 52 51 45 46 55 65 63 59 54 51 44 36 31 29 20 23 16 13 7 4 2 5 6 7 12 8 2 7 6 3 2 3 6 4 2 3 4 3 3 4 3 8 12 9 6
46 50 55 59 58 48 49 63 67 58 54 53 50 42 36 31 14 26 19 12 10 9 3 2 5 6 14 9 12 3 7 4 5 3 4 2 0 4 3 3 1 7 7 11 16 12 2
53 57 62 62 63 62 56 57 66 62 64 53 53 44 39 29 19 20 18 17 13 4 7 4 6 6 6 3 3 6 5 7 5 4 5 2 1 4 4 5 2 8 6 9 1 2 2
56 66 69 66 65 66 64 55 67 73 65 51 55 46 32 37 29 23 23 21 3 5 1 6 5 7 6 5 2 4 4 3 3 3 2 5 2 3 1 3 3 7 6 4 5 4 4
61 73 64 61 61 63 64 59 69 66 64 60 53 37 37 28 30 30 29 4 5 8 6 4 5 9 5 5 2 2 5 4 2 5 3 3 2 2 4 2 2 3 1 3 3 4 11
70 69 56 49 55 66 67 62 72 72 62 61 42 40 38 29 34 31 17 4 12 5 7 8 5 5 4 2 6 4 2 6 5 5 5 4 3 2 3 2 4 2 1 5 3 9 5
63 49 40 45 50 55 69 73 75 70 69 57 51 34 37 36 29 30 4 11 6 3 4 4 6 5 5 5 4 4 6 3 4 3 4 5 1 2 4 4 2 3 2 4 2 4 6
38 25 29 35 42 58 79 81 75 66 60 51 47 17 26 34 32 23 7 6 4 4 10 4 4 4 5 5 3 3 6 1 3 4 3 4 3 3 2 1 4 2 2 2 2 2 3
34 10 31 32 64 82 81 76 69 65 59 53 24 6 36 33 9 5 4 5 7 6 6 4 4 5 3 4 4 2 5 4 4 7 3 1 4 1 6 6 5 4 4 3 1 3 5
23 43 43 53 68 74 72 68 65 63 65 49 21 15 29 32 6 9 4 5 4 4 3 4 3 3 3 4 5 4 5 3 5 3 6 5 1 2 5 4 3 1 2 0 6 7 3
8 7 25 38 48 54 58 60 61 59 50 36 17 5 11 13 3 12 6 5 5 8 5 6 4 5 5 3 4 5 4 2 3 5 9 5 3 6 6 6 3 4 6 5 2 4 5
17 24 29 29 29 34 38 49 59 55 38 30 8 5 13 9 4 4 5 6 11 5 4 7 3 3 7 4 3 4 3 3 3 8 4 4 3 4 5 8 5 8 6 5 0 8 3
16 20 23 28 30 33 40 48 50 31 28 16 8 10 7 22 16 6 2 5 9 6 4 4 7 7 5 5 5 6 6 2 3 3 3 2 2 3 3 9 6 3 2 4 5 3 6
16 21 25 26 31 37 38 44 43 26 21 11 9 18 17 4 4 4 4 5 8 8 8 8 16 6 7 6 11 12 5 6 7 6 3 3 2 2 3 2 3 1 4 5 3 2 4
17 22 23 24 28 28 30 42 28 25 16 14 20 18 14 3 3 4 4 6 11 4 8 11 17 7 7 13 10 6 3 3 4 4 7 4 3 1 3 4 1 3 5 2 4 3 5
19 22 21 20 19 23 29 29 28 22 13 20 18 22 8 4 5 6 10 11 19 21 10 12 6 14 18 8 3 3 2 2 1 4 6 6 3 1 1 1 1 3 2 2 1 1 8
20 20 19 22 21 24 29 28 20 16 16 17 19 19 22 8 1 6 8 17 12 5 4 6 17 17 6 3 2 3 3 4 3 3 3 5 2 1 1 1 4 4 4 1 5 3 11
22 22 20 20 20 25 30 26 21 19 16 13 18 20 20 12 5 6 5 6 9 8 5 5 7 3 3 2 2 2 2 1 4 6 4 3 3 4 2 3 5 1 8 2 2 3 13
25 26 23 21 20 23 27 24 20 16 13 11 15 15 16 11 8 8 9 10 11 11 5 9 5 1 3 3 2 2 2 1 2 1 3 4 4 3 2 1 5 2 2 2 1 7 9
23 24 26 23 23 21 23 25 20 18 15 11 18 17 16 14 14 18 17 13 12 10 18 7 4 3 4 4 1 3 2 2 3 2 3 2 4 4 5 4 2 3 6 2 1 5 7
Wind_Direction
259 257 258 259 261 263 261 260 263 265 274 279 279 279 283 285 285 285 290 289 293 303 309 314 323 333 331 296 228 244 302 327 328 322 333 1 34 16 349 11 341 168 328 315 310 316 319
257 258 258 257 257 257 260 257 257 264 260 271 271 271 275 277 279 282 280 289 293 304 307 310 316 327 314 266 221 279 300 334 327 4 358 317 3 326 317 27 156 310 303 311 9 351 2
256 271 260 256 255 256 255 256 257 256 262 260 268 265 267 270 271 272 278 283 292 299 302 306 312 328 297 270 254 287 300 285 293 352 352 137 38 18 342 329 321 297 345 345 19 359 13
266 264 263 261 256 254 252 250 250 252 258 255 263 267 264 265 262 269 273 279 287 292 298 302 307 325 273 217 211 259 35 207 325 347 3 230 194 63 11 316 6 24 56 11 321 16 356
255 260 267 264 255 256 252 250 245 244 246 253 254 262 260 259 261 264 273 279 286 288 292 292 296 312 246 177 201 144 355 32 64 110 70 144 119 68 22 42 11 17 324 314 314 338 348
258 253 256 259 261 259 254 249 248 243 242 246 250 252 255 254 251 253 262 275 289 289 284 279 270 276 208 207 195 138 81 63 63 151 104 85 65 69 28 46 308 305 309 277 290 281 298
263 261 253 249 262 261 253 250 246 244 240 241 246 251 250 245 244 243 255 267 278 274 239 235 168 136 146 198 188 143 60 136 86 75 76 33 70 103 115 111 187 239 250 278 277 274 299
260 260 257 252 247 255 260 256 249 244 241 237 242 246 244 239 234 237 249 259 244 240 316 253 242 232 213 213 182 181 119 131 75 97 71 40 114 187 142 71 36 353 302 294 302 212 309
261 262 258 251 246 244 250 256 256 244 242 237 237 237 235 230 228 240 248 248 238 241 257 268 230 231 217 200 196 181 176 124 111 90 90 134 165 143 109 58 27 270 249 277 286 313 221
271 263 262 257 244 245 244 248 249 254 242 236 233 234 225 216 224 233 224 219 207 157 21 254 201 216 180 171 183 166 167 139 90 131 126 132 178 66 81 104 40 301 238 278 280 325 302
272 265 262 259 254 244 242 241 237 243 245 238 229 226 213 217 208 199 206 180 159 147 266 133 154 160 169 174 137 105 178 156 141 124 110 168 268 44 99 236 287 250 284 260 281 276 289
272 271 267 262 252 250 247 233 229 247 240 243 228 218 206 198 197 200 189 170 153 67 239 187 145 146 127 208 134 119 107 93 100 74 32 51 350 144 192 260 240 270 266 291 75 165 349
277 277 273 266 255 248 244 236 229 229 230 242 220 206 202 189 179 186 163 149 90 186 126 173 174 144 154 156 100 106 84 56 106 106 43 357 333 299 269 303 322 354 8 343 350 5 262
283 279 274 262 247 240 239 230 218 215 224 229 209 194 176 183 183 179 162 98 188 191 183 134 125 114 159 136 37 96 108 113 55 93 102 142 270 270 329 177 276 27 42 113 266 308 294
288 282 273 254 242 235 231 215 210 205 196 205 186 171 166 169 171 169 162 178 201 200 157 130 83 117 143 95 124 110 108 163 164 169 134 148 259 280 310 342 129 242 61 186 221 248 259
296 281 248 242 239 225 205 199 191 187 197 192 175 164 173 167 177 165 143 219 179 167 117 110 149 143 155 149 114 134 155 207 132 161 140 186 173 238 282 21 17 124 238 21 312 308 309
304 254 238 231 214 197 182 178 180 178 187 176 152 123 167 174 170 167 196 217 147 151 129 121 130 119 134 142 129 146 161 90 134 157 99 125 119 274 24 173 196 342 27 27 255 216 278
49 226 235 208 178 170 171 174 169 178 167 151 136 128 167 166 163 175 167 199 138 155 107 103 97 110 117 125 106 123 161 152 134 150 106 154 132 250 248 272 221 181 159 125 54 296 241
28 81 106 137 151 158 157 160 165 168 166 139 128 102 156 170 170 182 197 171 132 130 121 114 111 114 114 127 109 130 103 57 128 122 156 174 57 3 345 1 12 285 270 167 302 251 233
114 69 83 105 123 135 149 156 161 151 141 136 131 121 140 196 207 175 157 139 110 77 86 103 105 95 105 90 53 145 116 177 114 118 119 119 126 157 189 218 178 292 299 329 336 276 328
104 106 118 129 131 130 134 143 146 139 143 148 143 163 152 183 228 176 107 128 129 137 93 122 69 144 131 119 98 116 103 128 44 142 79 100 190 184 239 257 251 261 276 318 236 267 295
115 120 128 132 130 136 144 142 146 143 147 144 118 148 106 148 157 120 120 166 138 88 145 140 137 120 116 127 161 171 134 177 156 25 98 43 222 192 260 248 227 252 209 304 306 330 304
132 131 129 130 134 138 140 149 155 148 146 137 141 129 128 123 114 144 145 143 124 140 41 142 129 110 98 137 123 138 148 169 160 140 134 141 166 183 262 301 326 32 202 228 238 24 303
135 136 127 124 134 137 147 156 153 146 150 153 153 155 127 94 129 112 106 132 144 113 121 121 117 97 127 132 113 103 140 224 196 197 165 142 182 184 279 345 20 238 119 111 314 107 4
141 134 129 124 137 144 154 156 162 162 163 160 134 143 117 77 79 108 130 113 96 96 88 100 86 131 143 122 82 90 18 112 131 193 187 171 147 175 124 303 228 344 165 9 350 80 7
147 142 133 136 129 140 145 149 152 146 141 151 122 141 134 126 37 117 106 133 122 102 67 81 121 136 131 82 90 134 178 143 168 108 114 143 40 253 185 221 244 222 128 240 200 229 3
154 153 147 144 142 145 148 145 146 150 148 150 129 138 143 95 66 124 108 128 125 93 100 121 136 100 119 97 101 149 178 176 167 168 174 134 167 214 183 226 286 270 309 120 194 280 340
162 156 147 147 149 149 153 144 142 140 143 150 109 130 129 95 78 111 117 127 128 131 131 154 103 14 59 78 130 172 129 168 96 120 170 166 155 195 137 207 275 339 351 154 231 322 332
155 153 149 144 144 144 150 156 145 139 140 143 118 107 138 107 114 100 104 114 131 143 136 139 126 117 144 100 131 114 124 59 139 214 339 255 179 182 175 218 167 142 137 137 293 302 318
Height
1490 1491 1492 1494 1496 1497 1499 1499 1500 1501 1501 1502 1502 1502 1502 1501 1502 1501 1501 1500 1499 1498 1498 1499 1497 1497 1496 1495 1494 1493 1495 1496 1496 1496 1496 1496 1496 1495 1497 1497 1497 1498 1498 1497 1496 1493 1489
1481 1484 1485 1487 1489 1489 1493 1493 1496 1497 1498 1499 1499 1498 1498 1498 1498 1500 1498 1499 1497 1497 1496 1497 1496 1495 1497 1497 1494 1493 1493 1494 1494 1495 1495 1495 1496 1496 1497 1498 1499 1498 1497 1495 1494 1491 1487
1471 1474 1478 1478 1481 1483 1484 1488 1490 1493 1494 1493 1496 1494 1495 1496 1496 1496 1497 1496 1496 1495 1495 1495 1495 1493 1494 1494 1493 1493 1492 1493 1494 1494 1494 1495 1495 1496 1497 1497 1497 1496 1497 1495 1492 1490 1487
1463 1464 1468 1471 1472 1474 1478 1479 1483 1487 1488 1488 1489 1493 1492 1492 1492 1494 1494 1493 1494 1494 1493 1494 1494 1492 1492 1491 1491 1492 1491 1491 1494 1494 1493 1494 1494 1495 1498 1497 1496 1498 1502 1508 1494 1493 1490
1455 1456 1456 1459 1463 1465 1467 1471 1473 1477 1483 1484 1483 1487 1488 1489 1490 1491 1493 1492 1492 1492 1492 1492 1493 1492 1491 1491 1492 1491 1491 1490 1491 1492 1493 1493 1495 1497 1500 1502 1508 1510 1517 1511 1504 1497 1497
1444 1447 1449 1448 1450 1455 1458 1460 1465 1469 1472 1478 1480 1480 1483 1486 1486 1489 1489 1489 1489 1489 1490 1491 1490 1493 1490 1491 1491 1491 1490 1490 1490 1491 1493 1493 1496 1502 1508 1510 1520 1518 1517 1508 1507 1500 1496
1435 1437 1438 1441 1439 1444 1447 1449 1455 1460 1463 1470 1473 1477 1479 1481 1483 1486 1487 1488 1490 1489 1487 1487 1486 1485 1488 1490 1491 1491 1490 1490 1490 1490 1496 1497 1505 1512 1510 1509 1509 1511 1512 1510 1503 1496 1496
1424 1427 1427 1430 1433 1433 1438 1441 1445 1450 1456 1459 1466 1470 1475 1477 1480 1482 1484 1484 1484 1486 1485 1484 1485 1484 1485 1488 1490 1490 1490 1491 1491 1496 1497 1505 1512 1507 1506 1507 1509 1510 1512 1506 1493 1491 1494
1412 1414 1415 1418 1422 1426 1426 1432 1435 1438 1445 1450 1457 1462 1468 1473 1475 1480 1481 1482 1483 1485 1487 1480 1480 1482 1484 1488 1487 1488 1490 1490 1493 1496 1500 1505 1508 1506 1506 1510 1511 1510 1510 1506 1500 1482 1485
1399 1401 1402 1405 1408 1413 1417 1421 1425 1427 1434 1440 1446 1454 1461 1467 1473 1476 1477 1478 1483 1485 1492 1481 1476 1477 1481 1485 1485 1487 1488 1491 1494 1498 1503 1505 1505 1506 1506 1508 1510 1513 1501 1501 1496 1499 1495
1386 1386 1387 1390 1394 1399 1405 1407 1413 1418 1424 1431 1436 1444 1452 1459 1463 1467 1473 1478 1482 1485 1498 1473 1474 1475 1479 1483 1482 1486 1488 1490 1493 1496 1500 1505 1503 1506 1508 1508 1508 1507 1499 1494 1489 1493 1493
1372 1371 1371 1373 1376 1382 1391 1399 1398 1405 1414 1421 1427 1434 1440 1452 1459 1465 1469 1477 1483 1493 1489 1473 1471 1473 1480 1483 1480 1483 1486 1490 1494 1498 1501 1503 1503 1505 1506 1505 1505 1501 1495 1487 1486 1490 1489
1355 1350 1348 1348 1353 1361 1371 1383 1390 1395 1401 1410 1420 1424 1431 1446 1449 1463 1466 1474 1489 1491 1464 1468 1469 1470 1477 1482 1484 1482 1488 1493 1498 1503 1508 1508 1506 1505 1505 1508 1505 1502 1500 1503 1491 1484 1478
1336 1323 1319 1318 1324 1337 1352 1365 1377 1386 1392 1399 1409 1421 1423 1446 1452 1461 1464 1472 1482 1462 1463 1460 1464 1470 1477 1478 1484 1486 1489 1498 1498 1501 1514 1514 1516 1507 1506 1506 1506 1507 1508 1524 1538 1497 1483
1309 1296 1292 1291 1299 1312 1329 1348 1363 1374 1381 1390 1405 1419 1421 1439 1447 1451 1462 1471 1453 1454 1454 1457 1465 1472 1476 1478 1482 1486 1490 1498 1496 1499 1511 1514 1512 1504 1504 1503 1506 1510 1511 1505 1524 1500 1495
1282 1267 1265 1273 1281 1293 1312 1328 1347 1360 1366 1382 1392 1414 1423 1428 1445 1445 1460 1449 1449 1449 1452 1452 1461 1467 1477 1479 1483 1486 1490 1492 1494 1496 1498 1507 1516 1504 1503 1501 1503 1505 1504 1519 1513 1510 1490
1267 1253 1254 1256 1265 1281 1298 1314 1333 1352 1362 1379 1395 1413 1426 1439 1444 1447 1453 1450 1444 1448 1447 1453 1459 1466 1471 1477 1483 1486 1491 1492 1492 1497 1497 1502 1509 1506 1503 1509 1507 1509 1515 1510 1508 1506 1496
1268 1248 1249 1255 1262 1274 1292 1312 1330 1339 1356 1371 1392 1411 1427 1432 1443 1442 1443 1442 1441 1446 1447 1453 1457 1461 1470 1474 1481 1486 1489 1490 1492 1494 1498 1501 1509 1513 1506 1499 1499 1501 1502 1505 1512 1508 1492
1290 1268 1266 1264 1271 1282 1299 1312 1324 1336 1350 1364 1393 1402 1420 1430 1433 1435 1434 1436 1439 1441 1447 1452 1458 1459 1465 1473 1482 1485 1488 1491 1492 1493 1497 1499 1513 1522 1507 1504 1500 1501 1501 1500 1501 1500 1492
1300 1296 1293 1290 1292 1302 1307 1314 1322 1334 1354 1369 1388 1405 1427 1430 1427 1427 1428 1431 1437 1440 1446 1451 1459 1461 1464 1474 1477 1485 1490 1493 1492 1492 1493 1495 1506 1520 1533 1515 1508 1509 1501 1500 1501 1501 1491
1310 1307 1305 1308 1313 1316 1323 1322 1337 1347 1358 1372 1386 1399 1399 1417 1424 1421 1420 1428 1435 1445 1446 1450 1459 1462 1463 1475 1480 1486 1489 1493 1494 1493 1494 1497 1509 1508 1505 1502 1502 1501 1500 1498 1507 1497 1492
1318 1318 1319 1321 1322 1326 1334 1339 1349 1355 1366 1373 1380 1388 1395 1407 1415 1417 1423 1429 1433 1440 1449 1452 1458 1461 1464 1470 1474 1483 1487 1490 1491 1495 1495 1498 1503 1503 1499 1494 1497 1496 1494 1497 1497 1492 1491
1324 1325 1326 1329 1332 1337 1342 1350 1358 1364 1369 1376 1382 1384 1390 1410 1414 1417 1423 1427 1433 1443 1447 1449 1453 1464 1467 1472 1474 1477 1481 1485 1488 1493 1496 1499 1502 1503 1496 1489 1493 1499 1495 1500 1501 1495 1497
1329 1331 1333 1336 1339 1345 1351 1359 1364 1369 1374 1378 1382 1389 1396 1414 1415 1415 1421 1428 1437 1437 1442 1452 1456 1460 1471 1473 1476 1478 1481 1484 1487 1490 1491 1497 1501 1502 1497 1491 1510 1492 1492 1493 1494 1493 1496
1334 1337 1339 1343 1347 1352 1359 1365 1371 1376 1379 1382 1383 1389 1394 1412 1413 1421 1426 1430 1435 1439 1446 1452 1459 1462 1468 1472 1479 1481 1485 1482 1484 1486 1489 1493 1498 1504 1502 1493 1488 1494 1492 1496 1495 1495 1495
1339 1342 1345 1350 1354 1359 1365 1371 1376 1378 1380 1384 1387 1392 1398 1409 1423 1423 1426 1429 1434 1444 1452 1458 1463 1466 1468 1474 1479 1482 1487 1480 1485 1487 1489 1493 1496 1497 1497 1495 1508 1491 1490 1492 1493 1492 1495
1343 1347 1351 1355 1360 1364 1369 1374 1378 1382 1386 1389 1390 1395 1399 1409 1422 1425 1427 1431 1437 1443 1455 1461 1464 1467 1469 1477 1479 1484 1485 1481 1485 1484 1488 1494 1497 1496 1495 1496 1493 1490 1489 1489 1489 1502 1494
1347 1351 1356 1360 1364 1368 1372 1376 1381 1385 1388 1393 1396 1399 1402 1414 1425 1427 1428 1433 1438 1442 1451 1460 1465 1468 1471 1477 1479 1485 1485 1483 1484 1483 1485 1490 1497 1506 1499 1500 1498 1488 1488 1488 1497 1494 1493
1350 1354 1359 1364 1367 1371 1375 1380 1385 1390 1394 1398 1399 1401 1406 1415 1428 1429 1431 1435 1438 1442 1447 1457 1461 1462 1466 1473 1479 1480 1484 1489 1486 1493 1487 1498 1492 1494 1493 1493 1486 1487 1488 1491 1492 1492 1491